Location: Palanzano
(44.4333°N, 10.1833°E)
Time: 07:27:44
(UTC+00:00)

Daily predictions for brighter satellites

Satellite Brightness Start Highest point End
(mag) Time Altitude Azimuth Time Altitude Azimuth Time Altitude Azimuth
Okean O Rocket 1.7 16:34:36 10° SSE 16:38:56 57° ENE 16:43:17 10° N
CZ-4B R/B 2.8 16:37:46 10° NE 16:40:24 21° E 16:42:59 10° SE
YAOGAN 6 3.7 16:37:23 10° S 16:40:49 49° W 16:44:19 10° NNW
SMAP 3.0 16:36:17 10° SSE 16:40:55 81° ENE 16:45:35 10° N
Cosmos 1626 2.1 16:37:56 10° S 16:41:38 88° W 16:45:21 10° N
SeaSat 1 4.3 16:38:15 10° N 16:42:15 25° NW 16:46:16 10° WSW
Cosmos 773 Rocket 4.2 16:37:20 10° N 16:42:21 49° ENE 16:47:18 10° SE
CZ-4B R/B 3.2 16:37:27 10° SSE 16:42:56 76° ENE 16:48:35 10° NNW
SL-24 R/B 4.1 16:39:15 10° SSE 16:43:32 72° ENE 16:48:07 10° N
Aureole 2 Rocket 4.2 16:45:01 10° SE 16:46:18 12° E 16:47:36 10° ENE
AQUARIUS 4.1 16:43:22 10° SSE 16:47:51 82° ENE 16:52:23 10° NNW
Cosmos 1603 3.9 16:45:45 10° NNW 16:51:30 84° WSW 16:57:14 10° SSE
Meteor 2-10 Rocket 4.2 16:47:08 10° N 16:52:10 34° ENE 16:56:59 10° SE
CZ-2D R/B 4.1 16:52:23 10° SE 16:55:45 29° ENE 16:59:08 10° N
Cosmos 1606 Rocket 3.6 16:53:07 10° N 16:57:29 62° E 17:01:51 10° SSE
YAOGAN 1 3.8 16:55:25 10° ESE 16:58:31 20° ENE 17:01:39 10° NNE
Cosmos 1892 Rocket 4.0 16:54:36 10° SSE 16:58:39 39° E 17:02:42 10° NNE
USA 234 4.3 16:53:23 10° ENE 16:58:52 30° N 17:04:21 10° NW
H-2A R/B 2.2 16:54:33 10° NNE 16:59:02 85° WNW 17:03:24 10° SSW
TELKOM 3 4.0 16:57:07 10° SSW 16:59:13 31° SE 17:01:03 13° E
FengYun 1-2 T 4.3 16:54:57 10° SSE 17:00:30 87° ENE 17:06:09 10° NNW
ATLAS 5 CENTAUR R/B 2.1 16:56:49 10° SW 17:00:44 53° NW 17:05:09 10° NNE
CZ-4C R/B 4.4 16:59:55 10° N 17:02:50 36° WNW 17:05:46 10° SW
SL-14 R/B 3.7 17:00:18 10° SSW 17:04:07 64° W 17:08:01 10° N
Helios 1A Rocket 4.4 17:01:39 10° ESE 17:04:25 18° ENE 17:07:11 10° NNE
RESURS DK-1 4.0 17:02:19 10° WSW 17:06:03 32° NW 17:09:50 10° N
MOS 1 Rocket 3.7 17:04:30 10° NNE 17:08:26 34° E 17:12:19 10° SSE
ATLAS 3B R/B 3.7 17:02:38 10° NW 17:09:23 53° WSW 17:16:24 10° SSE
Cosmos 2228 3.0 17:05:11 10° N 17:09:28 87° W 17:13:45 10° S
BREEZE-M DEB (TANK) 4.1 17:08:16 10° W 17:10:46 25° SSW 17:13:44 10° SSE
Cosmos 2142 Rocket 4.5 17:05:25 10° N 17:11:37 88° E 17:17:44 10° S
Meteor 2-5 Rocket 4.1 17:07:28 10° SSW 17:13:01 68° WNW 17:18:33 10° N
SKYMED 2 3.7 17:10:09 10° NNE 17:14:25 53° E 17:18:39 10° S
CZ-4C R/B 3.8 17:10:13 10° W 17:14:39 27° NNW 17:19:52 10° NNE
SJ 16-02 2.2 17:12:12 10° SSE 17:15:57 28° E 17:18:57 14° NE
Cosmos 1538 Rocket 4.0 17:10:59 10° NNW 17:16:04 55° ENE 17:21:08 10° SE
Aureole 3 4.1 17:13:30 10° NNE 17:16:12 21° ENE 17:18:39 10° ESE
Nadezhda 4 Rocket 4.3 17:11:26 10° SSE 17:17:17 43° E 17:23:05 10° NNE
CZ-3B R/B 2.9 17:15:14 10° NNW 17:17:28 25° NE 17:20:09 16° E
Cosmos 1777 Rocket 4.0 17:13:56 10° SSW 17:19:10 79° ESE 17:24:29 10° NNE
YAOGAN 3 4.5 17:16:57 10° SSE 17:21:17 74° ENE 17:25:39 10° N
Cosmos 2263 Rocket 3.2 17:15:50 10° SW 17:21:18 47° WNW 17:26:46 10° NNE
Cosmos 1455 2.8 17:23:27 10° N 17:26:56 32° ENE 17:30:24 10° SE
Cosmos 2058 Rocket 3.0 17:24:28 10° N 17:28:57 66° E 17:33:25 10° SSE
Cosmos 1300 4.2 17:27:31 10° NNW 17:31:06 39° W 17:34:39 10° SSW
Cosmos 1703 4.4 17:28:50 10° SE 17:31:37 22° E 17:31:37 22° E
X-37B 1.7 17:29:13 10° SW 17:32:07 32° SSE 17:33:14 25° ESE
Meteor 2-13 Rocket 4.5 17:29:46 10° S 17:35:41 57° E 17:41:42 10° NNE
ARGOS 3.7 17:31:58 10° SE 17:36:45 35° ENE 17:41:35 10° N
Cosmos 44 4.4 17:36:05 10° SSE 17:39:48 23° ESE 17:40:18 23° E
Okean 1-7 Rocket 3.5 17:35:37 10° S 17:40:08 74° E 17:44:43 10° NNE
CREW DRAGON DEMO-1 DEB 3.9 17:39:20 10° NW 17:41:52 27° NNE 17:41:52 27° NNE
Lacrosse 5 2.0 17:37:16 10° NW 17:42:14 53° NE 17:44:59 25° ESE
Cosmos 1939 Rocket 3.9 17:39:55 10° S 17:43:54 49° W 17:47:55 10° NNW
ISS -3.6 17:40:51 10° SW 17:44:10 57° SE 17:45:00 42° E
Cosmos 1726 Rocket 4.4 17:40:10 10° NNW 17:44:25 52° W 17:48:40 10° S
ERS-2 2.0 17:42:03 14° NNE 17:45:03 72° ESE 17:48:40 10° S
CSL-04 Debris 4.4 17:41:45 10° SE 17:46:48 43° ENE 17:51:52 10° N
CZ-2C R/B 3.6 17:45:49 26° ENE 17:46:50 28° E 17:51:33 10° SSE
PSLV R/B 3.9 17:43:31 12° NNE 17:47:27 62° ESE 17:51:37 10° S
EXPRESS MD2 4.0 17:39:50 10° WNW 17:47:55 88° SSW 17:50:21 25° ESE
COSMOS 2455 2.9 17:42:36 10° SW 17:48:38 78° WNW 17:54:02 13° NNE
Cosmos 1626 Rocket 3.7 17:47:10 10° SSE 17:51:23 50° E 17:54:01 22° NNE
Cosmos 1844 3.7 17:47:58 10° S 17:53:30 60° ESE 17:57:10 22° NE
Cosmos 2026 Rocket 4.3 17:48:50 10° SSE 17:54:23 39° E 18:00:03 10° NNE
IRS-1C Rocket 4.2 17:49:23 10° S 17:54:38 78° WSW 17:59:55 10° NNW
Cosmos 990 Rocket 4.5 17:50:33 10° SSE 17:55:18 37° ESE 17:56:17 34° ENE
Cosmos 1833 Rocket 4.2 17:51:39 10° N 17:54:41 19° NNE 17:54:41 19° NNE
CZ-4 R/B 1.3 17:52:02 10° SSE 17:56:10 87° ENE 18:00:14 10° NNW
Cosmos 2082 Rocket 4.2 17:54:41 10° NNE 17:55:55 12° NNE 17:55:55 12° NNE
NOAA 15 4.5 17:52:13 10° SSE 17:57:27 78° ENE 18:02:44 10° NNW
COSMO-SKYMED 1 3.5 17:58:19 10° N 18:02:30 47° WNW 18:06:39 10° SW
DMSP B5D1-3 4.4 18:01:31 15° NNE 18:05:44 64° ESE 18:10:47 10° S
USA 267 3.8 18:04:12 31° E 18:06:11 38° SE 18:12:09 10° SSW
Okean-O 2.8 18:07:52 10° S 18:12:17 73° WSW 18:16:44 10° NNW
CZ-4B R/B 3.8 18:09:50 10° NNW 18:12:33 22° WNW 18:15:11 10° WSW
CZ-2C R/B 4.0 18:08:44 10° S 18:13:50 51° W 18:19:14 10° NNW
Cosmos 1844 Rocket 2.8 18:09:52 10° SSW 18:15:32 76° WNW 18:19:24 21° NNE
H-2A R/B 2.0 18:11:15 10° S 18:16:13 80° WSW 18:21:20 10° NNW
Cosmos 923 Rocket 3.9 18:12:26 10° NNW 18:17:49 84° ENE 18:23:07 10° SSE
Meteor 1-21 Rocket 4.2 18:12:25 10° SSW 18:17:56 83° W 18:23:32 10° N
Aureole 2 Rocket 3.8 18:16:13 10° SW 18:18:56 30° WNW 18:19:28 28° NW
Cosmos 1689 Rocket 3.4 18:20:01 37° WSW 18:20:01 37° WSW 18:22:09 10° SSW
Cosmos 2195 Rocket 4.4 18:13:37 10° S 18:19:54 73° E 18:26:15 10° NNE
Cosmos 158 Rocket 4.1 18:17:50 10° NNW 18:23:12 81° WSW 18:28:36 10° SSE
Meteor 2-8 Rocket 4.3 18:17:29 10° N 18:23:35 70° E 18:29:40 10° SSE
Cosmos 1898 Rocket 3.5 18:18:36 10° S 18:23:42 57° ESE 18:23:42 57° ESE
Cosmos 2278 Rocket 4.3 18:20:07 10° SSE 18:20:26 11° SSE 18:20:26 11° SSE
Cosmos 1680 Rocket 3.3 18:19:57 10° NNW 18:25:13 74° ENE 18:26:36 49° SE
Cosmos 1627 Rocket 4.3 18:23:38 10° S 18:29:46 77° E 18:36:02 10° N
Cosmos 2098 Rocket 4.2 18:24:09 10° S 18:31:02 64° E 18:38:24 10° NNE
Cosmos 1602 Rocket 3.5 18:27:07 10° S 18:31:26 82° W 18:31:34 80° NW
Cosmos 1818 4.0 18:27:24 10° SW 18:32:45 59° NW 18:34:52 35° NNE
YAOGAN 1 3.7 18:30:12 10° S 18:34:19 43° W 18:38:28 10° NNW
Cosmos 1428 Rocket 4.3 18:28:31 10° S 18:34:46 78° E 18:41:06 10° N
CSL-04 Rocket 3.7 18:32:39 10° S 18:38:02 78° WSW 18:43:32 10° NNW
Helios 1A Rocket 3.9 18:35:14 10° S 18:39:12 46° W 18:43:13 10° NNW
USA 234 3.6 18:40:19 43° NE 18:40:55 44° NNE 18:47:02 10° NW
Cosmos 1092 Rocket 4.2 18:38:47 10° SSW 18:44:58 68° W 18:51:07 10° N
ATLAS 5 CENTAUR R/B 4.1 18:44:28 10° NW 18:46:33 13° NNW 18:47:38 12° N
Iridium 4 Rocket 3.8 18:41:43 10° N 18:47:24 71° W 18:52:37 10° S
SJ 16-02 3.2 18:50:38 10° WSW 18:54:28 29° WNW 18:55:59 23° NNW
Cosmos 2344 4.3 18:45:52 10° NW 18:55:11 70° NE 18:59:35 44° ESE
Cosmos 2112 Rocket 4.4 18:57:26 10° NNW 19:02:19 61° W 19:02:19 61° W
X-37B 4.2 19:05:23 10° W 19:05:31 11° W 19:05:31 11° W
Lacrosse 5 3.5 19:20:33 10° WNW 19:24:15 30° WSW 19:24:15 30° WSW
CZ-2C R/B 3.7 19:27:19 45° WNW 19:27:19 45° WNW 19:32:33 10° SW
NOSS 3-1 (C) 4.2 19:26:32 10° NW 19:34:08 71° WSW 19:34:39 69° SSW
USA 267 4.1 19:51:34 45° WSW 19:51:34 45° WSW 19:55:58 10° WSW
USA 229 DEB 4.4 19:43:44 10° NW 19:49:18 54° WNW 19:49:18 54° WNW
USA 229 4.4 19:43:51 10° NW 19:49:21 54° WNW 19:49:21 54° WNW
